www.pogodaiklimat.ru

ПОГОДА в Бофорте, NC

  • Прогноз погоды в Бофорте
  • Монитор погоды в Бофорте
  • Климат в Бофорте

АРХИВ ПОГОДЫ в Бофорте

Время (UTC), дата Ветер
(напр.,м/с)
 
Видим.   Явления Облачность Т
(С)
Тd
(С)
f
(%)
Тe
(С)
Тes
(С)
Комфортность

P
(гПа)

Po
(гПа)
Тmin
(С)
Tmax
(С)
R
(мм)
SD
(см)
09:58 25.03 ЮЗ  16 км    ясно  +14.4  +11.7  84  +13  +13    1019.8  1019.5         
10:58 25.03 Ю  16 км    ясно  +16.1  +12.8  81  +16  +16    1019.6  1019.2  +14.4  +16.1     
11:58 25.03 Ю  16 км    ясно  +17.8  +13.3  75  +17  +18    1019.5  1019.2         
12:58 25.03 Ю  16 км    ясно  +19.4  +13.3  68  +20  +22    1019.1  1018.5         
13:58 25.03 Ю  16 км    ясно  +20.6  +13.3  63  +23  +25  комфорт  1019.0  1018.5         
14:58 25.03 ЮЗ  16 км    ясно  +21.1  +13.3  61  +23  +26  комфорт  1018.5  1018.1         
15:58 25.03 Ю  16 км    ясно  +22.2  +14.4  61  +25  +28  комфорт  1017.7  1017.1         
16:58 25.03 Ю  8
{11} 
16 км    ясно  +22.8  +13.9  57  +26  +28  жарко  1016.5  1016.1  +16.1  +22.8     
17:58 25.03 Ю  16 км    ясно  +21.1  +14.4  66  +24  +29  комфорт  1015.6  1015.1         
18:58 25.03 Ю  16 км    ясно  +20.6  +15.6  73  +23  +27  комфорт  1015.0  1014.4         
19:58 25.03 Ю  16 км    ясно  +20.6  +16.1  75  +23  +25  комфорт  1014.1  1013.7         
20:58 25.03 Ю  16 км    ясно  +19.4  +15.6  79  +21  +22  комфорт  1013.6  1013.1         
21:58 25.03 Ю  16 км    ясно  +18.3  +15.6  84  +18  +19    1013.4  1013.1         
22:58 25.03 Ю  16 км    2/0 2850 м
[средняя] 
+18.3  +15.0  81  +18  +18    1012.6  1012.1  +18.3  +22.8     
23:58 25.03 Ю  16 км    ясно  +17.8  +15.0  84  +17  +17    1012.5  1012.1         
00:58 26.03 Ю  16 км    8/8 1950 м  +18.3  +15.6  84  +18  +18    1012.5  1012.1         
01:58 26.03 ЮЗ  16 км  гроза  10/10 1500 м  +17.8  +15.6  87  +18  +18    1012.0  1011.7         
02:19 26.03 З  16 км    8/8 1500 м
[средняя] 
+18.3  +15.0  81  +18  +18      1011.4         
02:58 26.03 З  16 км    8/8 1470 м  +17.8  +14.4  80  +17  +17    1011.9  1011.4         
03:50 26.03 З  16 км    10/10 420 м  +17.2  +15.0  87  +17  +17      1011.0         
03:58 26.03 С  16 км    10/8 420 м
[средняя] 
+16.7  +14.4  86  +16  +16    1011.3  1010.7         
04:09 26.03 С  16 км    10/5 420 м
[средняя] 
+16.7  +13.3  80  +16  +16      1010.7         
04:58 26.03 СЗ  16 км    8/8 630 м
[средняя] 
+15.0  +12.8  87  +13  +13    1011.7  1011.4  +15.0  +18.9     
05:51 26.03 С  16 км    8/5 870 м
[средняя] 
+14.4  +12.2  87  +13  +13      1010.7         
05:58 26.03 С  16 км    8/2 930 м
[средняя] 
+14.4  +12.2  87  +13  +13    1011.3  1010.7         
06:58 26.03 С  16 км    8/0 2250 м
[средняя] 
+13.9  +12.2  89  +12  +12    1010.4  1010.0         
07:31 26.03 С  16 км    8/8 450 м
[средняя] 
+14.4  +12.8  90  +13  +13      1010.4         
07:44 26.03 С  16 км    10/10 390 м  +14.4  +12.8  90  +13  +13      1011.0         
07:58 26.03 СВ  7
{10} 
16 км    10/10 360 м  +13.9  +12.2  89  +11  +11    1011.5  1011.0         
08:05 26.03 СВ  6
{10} 
16 км    10/10 240 м  +13.3  +11.1  87  +11  +11      1011.4         
08:16 26.03 СВ  6
{11} 
16 км    10/10 240 м  +12.8  +10.6  86  +10  +10      1011.4         
08:58 26.03 С  7
{11} 
16 км    10/10 270 м  +11.7  +8.9  83  +8  +8    1013.2  1012.7         
09:08 26.03 С  7
{11} 
16 км    10/10 300 м  +11.7  +8.9  83  +8  +8      1012.7         
09:58 26.03 С  11
{14} 
16 км    10/10 300 м  +10.6  +8.3  86  +6  +6    1013.9  1013.4         
10:58 26.03 С  7
{10} 
16 км  слабый дождь  10/10 300 м  +9.4  +7.8  90  +5  +5    1015.9  1015.4  +9.4  +15.0     
11:58 26.03 С  10
{14} 
16 км    10/10 450 м  +9.4  +7.2  86  +4  +4    1016.5  1016.1         
12:58 26.03 С  10
{15} 
16 км    10/10 540 м  +10.0  +6.7  80  +5  +5    1017.5  1017.1         
13:58 26.03 С  12
{15} 
16 км    10/10 540 м  +9.4  +5.0  74  +4  +4    1018.6  1018.1      0.3   
14:58 26.03 С  10
{16} 
16 км    10/10 600 м  +10.0  +5.0  71  +5  +5    1019.3  1018.8         
15:35 26.03 С  12
{17} 
16 км    8/2 720 м
[средняя] 
+11.1  +3.3  59  +7  +7      1019.2         
15:58 26.03 С  11
{16} 
16 км    8/2 900 м
[средняя] 
+12.2  +3.9  57  +8  +8    1019.8  1019.2         
16:58 26.03 С  12
{18} 
16 км    5/5 900 м  +12.8  +2.8  51  +9  +9    1019.8  1019.5  +9.4  +12.8  0.3   
17:58 26.03 С  13
{16} 
16 км    2/2 1080 м  +12.8  +2.2  48  +9  +9    1019.8  1019.5         
18:58 26.03 СВ  9
{14} 
16 км    ясно  +13.3  +0.6  42  +10  +11    1020.1  1019.5         
19:58 26.03 С  9
{13} 
16 км    ясно  +12.2  -0.6  41  +9  +9    1020.7  1020.2         
20:58 26.03 С  9
{14} 
16 км    ясно  +11.1  -3.9  35  +7  +8    1021.5  1021.2         
21:58 26.03 СВ  6
{10} 
16 км    ясно  +9.4  -2.8  42  +6  +6    1022.3  1021.9         
22:58 26.03 СВ  7
{10} 
16 км    ясно  +7.8  -2.2  49  +4  +4    1023.5  1023.2  +7.8  +13.3     

 

Местоположение метеостанции Michael J Smith Field Airport: широта 34.7336 долгота -76.6606 высота над уровнем моря 3 м.

В архиве по умолчанию представлена погода в Бофорте за последние 1-2 суток. Обновление информации о фактической погоде в базе происходит ежечасно! Архивные данные за месяц целиком и за предыдущие месяцы Вы можете получить, выбрав интересующий диапазон дат из раскрывающегося списка и нажав кнопку "Ввод!".

Внимание! Архив погоды МЕТАР в базе сайта хранится не более 60 дней. Нет смысла пытаться выбрать более раннюю дату.

Внимание! Время в таблицах - всемирное. Для получения местного времени необходимо прибавить поправку, которая в Бофорте равна -5 ч.

Ветер - указаны скорость ветра в м/с и направление, откуда дует ветер: С - северный, СВ - северо-восточный, В - восточный, ЮВ - юго-восточный, Ю - южный, ЮЗ - юго-западный, З - западный, СЗ - северо-западный.
Видимость - горизонтальная дальность видимости в метрах или километрах. При видимости от 1 до 10 км при отсутствии осадков обычно наблюдается дымка, при ухудшении видимости до 1 км и менее - туман. В сухую погоду видимость может ухудшаться дымом, пылью или мглою.
Атмосферные явления - указаны явления, наблюдавшиеся в указанный момент времени.
Облачность - указаны через наклонную черту верхняя и нижняя облачность в баллах и высота нижней границы облаков в метрах. Внимание: облачность, как и прочие метеорологические величины в США измеряются автоматическими метеостанциями. Указанные значения в баллах носят условный характер и показывают процент времени, в течение которого, в среднем, лазерный луч высотомера отражался от облаков обратно.
T - Температура воздуха - температура, измеренная на высоте 2 м над землей.
Td - Температура точки росы - температура, при понижении до которой содержащийся в воздухе водяной пар достигнет насыщения.
f - Относительная влажность воздуха - влажноcть воздуха, измеренная на высоте 2 м над землей.
Te - Эффективная температура - температура, которую ощущает одетый по сезону человек в тени. Характеристика душности погоды. При расчете учитывается влияние влажности воздуха и скорости ветра на теплоощущения человека.
Tes - Эффективная температура на солнце - температура, которую ощущает человек, с поправкой на солнечный нагрев. Характеристика знойности погоды. Зависит от высоты солнца над горизонтом, облачности и скорости ветра. Ночью, в пасмурную погоду, а также при ветре 12 м/с и более поправка равна нулю.
P - Атмосферное давление - приведенное к уровню моря атмосферное давление.
Po - Атмосферное давление - измеренное на уровне метеостанции атмосферное давление.
Tmin - Минимальная температура - минимум температуры воздуха на высоте 2 м над землей.
Tmax - Максимальная температура - максимум температуры воздуха на высоте 2 м над землей.
R - Количество осадков - Количество выпавших осадков за 3 или 6 часов, мм.
SD - Снежный покров - Высота снежного покрова, см.